Diyarbakir, Turkey

2:08 PM +03 on January 22, 2018 (GMT +0300)
Diyarbakir

Weather History for LTCC - June, 2013

Change the Weather History Date:

Friday, June 28, 2013

  Actual Average Record
Temperature  
Mean Temperature 86 °F -  
Max Temperature 102 °F 100 °F 107 °F (2017)
Min Temperature 71 °F 70 °F 62 °F (2010)
Cooling Degree Days 22    
Growing Degree Days 36 (Base 50)    
Moisture  
Dew Point 39 °F    
Average Humidity 19    
Maximum Humidity 35    
Minimum Humidity 4    
Precipitation  
Precipitation 0.00 in 0.00 in - ()
Sea Level Pressure  
Sea Level Pressure 29.66 in    
Wind  
Wind Speed 7 mph ()    
Max Wind Speed 16 mph    
Max Gust Speed 26 mph    
Visibility 7.0 miles    
Events      
Averages and records for this station are not official NWS values.
T = Trace of Precipitation, MM = Missing Value Source: Averaged Metar Reports

Daily Weather History Graph

Daily Weather History Graph

Search for Another Location

Airport or City:

Trip Planner

Search our weather history database for the weather conditions in past years. The results will help you decide how hot, cold, wet, or windy it might be!

Date:

Astronomy

Jun. 28, 2013 Rise Set
Actual Time 4:59 AM EEST 7:45 PM EEST
Civil Twilight 4:27 AM EEST 8:16 PM EEST
Nautical Twilight 3:48 AM EEST 8:56 PM EEST
Astronomical Twilight 3:04 AM EEST 9:40 PM EEST
Moon 11:09 PM EEST (6/28) 10:37 AM EEST (6/28)
Length of Visible Light 15h 48m
Length of Day
14h 46m
Waning Gibbous, 69% of the Moon is Illuminated
Jun 28
Waning Gibbous
Jun 30
Last Quarter
Jul 8
New
Jul 16
First Quarter
Jul 22
Full

Hourly Weather History & Observations

Time (EEST) Temp. Dew Point Humidity Pressure Visibility Wind Dir Wind Speed Gust Speed Precip Events Conditions
12:20 AM 77.0 °F 41.0 °F 28% 29.68 in - Variable 2.3 mph - N/A   Clear
12:50 AM 75.2 °F 41.0 °F 29% 29.68 in - West 4.6 mph - N/A   Clear
1:20 AM 75.2 °F 41.0 °F 29% 29.68 in - NW 1.2 mph - N/A   Clear
1:50 AM 75.2 °F 41.0 °F 29% 29.68 in - WSW 4.6 mph - N/A   Clear
2:20 AM 75.2 °F 41.0 °F 29% 29.71 in - West 6.9 mph - N/A   Clear
2:50 AM 73.4 °F 42.8 °F 33% 29.71 in - West 8.1 mph - N/A   Clear
3:00 AM 73 °F 43 °F 23%  in 12 mi West 8.1 mph - -  
3:20 AM 75.2 °F 41.0 °F 29% 29.71 in - WNW 8.1 mph - N/A   Clear
3:50 AM 75.2 °F 42.8 °F 31% 29.71 in - NW 9.2 mph - N/A   Clear
4:20 AM 71.6 °F 42.8 °F 35% 29.71 in - NW 8.1 mph - N/A   Clear
4:50 AM 73.4 °F 42.8 °F 33% 29.71 in - NW 6.9 mph - N/A   Clear
5:20 AM 75.2 °F 42.8 °F 31% 29.71 in - NW 5.8 mph - N/A   Clear
5:50 AM 75.2 °F 44.6 °F 34% 29.71 in - NW 8.1 mph - N/A   Clear
6:20 AM 80.6 °F 44.6 °F 28% 29.71 in - WNW 8.1 mph - N/A   Clear
6:50 AM 84.2 °F 44.6 °F 25% 29.71 in - WNW 6.9 mph - N/A   Clear
7:20 AM 86.0 °F 44.6 °F 23% 29.71 in - NNW 9.2 mph - N/A   Clear
7:50 AM 87.8 °F 44.6 °F 22% 29.71 in - NNW 9.2 mph - N/A   Clear
8:20 AM 89.6 °F 42.8 °F 20% 29.71 in - North 9.2 mph - N/A   Clear
8:50 AM 91.4 °F 44.6 °F 20% 29.71 in - NNE 6.9 mph - N/A   Clear
9:20 AM 91.4 °F 42.8 °F 18% 29.71 in - North 8.1 mph - N/A   Clear
9:50 AM 93.2 °F 44.6 °F 19% 29.71 in - NNW 8.1 mph - N/A   Clear
10:20 AM 96.8 °F 42.8 °F 16% 29.71 in - Variable 3.5 mph - N/A   Clear
10:50 AM 95.0 °F 42.8 °F 16% 29.68 in - North 9.2 mph - N/A   Clear
11:20 AM 96.8 °F 42.8 °F 16% 29.68 in - Variable 4.6 mph - N/A   Clear
11:50 AM 96.8 °F 39.2 °F 14% 29.68 in 6.2 mi NNE 9.2 mph - N/A   Partly Cloudy
12:20 PM 100.4 °F 39.2 °F 12% 29.68 in 6.2 mi North 10.4 mph - N/A   Partly Cloudy
12:50 PM 100.4 °F 37.4 °F 11% 29.68 in 6.2 mi North 9.2 mph - N/A   Partly Cloudy
1:20 PM 100.4 °F 37.4 °F 11% 29.65 in 6.2 mi North 15.0 mph 26.5 mph N/A   Partly Cloudy
1:50 PM 100.4 °F 35.6 °F 11% 29.65 in 6.2 mi NNW 16.1 mph - N/A   Partly Cloudy
2:20 PM 100.4 °F 35.6 °F 11% 29.65 in 6.2 mi NNW 12.7 mph - N/A   Partly Cloudy
2:50 PM 102.2 °F 35.6 °F 10% 29.65 in 6.2 mi North 12.7 mph - N/A   Partly Cloudy
3:00 PM 102 °F 34 °F 4% 29.49 in 12 mi North 12.7 mph - -   Scattered Clouds
3:20 PM 100.4 °F 37.4 °F 11% 29.65 in 6.2 mi North 13.8 mph - N/A   Partly Cloudy
3:50 PM 100.4 °F 39.2 °F 12% 29.65 in 6.2 mi North 12.7 mph - N/A   Partly Cloudy
4:20 PM 100.4 °F 39.2 °F 12% 29.62 in 6.2 mi NNE 10.4 mph - N/A   Partly Cloudy
4:50 PM 100.4 °F 39.2 °F 12% 29.62 in 6.2 mi NNE 10.4 mph - N/A   Partly Cloudy
5:20 PM 98.6 °F 39.2 °F 13% 29.62 in - NE 9.2 mph - N/A   Clear
5:50 PM 100.4 °F 39.2 °F 12% 29.62 in - North 10.4 mph - N/A   Clear
6:20 PM 98.6 °F 37.4 °F 12% 29.62 in - North 11.5 mph - N/A   Clear
6:50 PM 96.8 °F 37.4 °F 13% 29.62 in - North 9.2 mph - N/A   Clear
7:20 PM 95.0 °F 37.4 °F 13% 29.62 in - NNE 6.9 mph - N/A   Clear
7:50 PM 93.2 °F 35.6 °F 13% 29.65 in - NNE 6.9 mph - N/A   Clear
8:20 PM 91.4 °F 35.6 °F 14% 29.65 in - NNE 4.6 mph - N/A   Clear
8:50 PM 89.6 °F 33.8 °F 14% 29.65 in - NE 5.8 mph - N/A   Clear
9:00 PM 90 °F 32 °F 6% 29.47 in 6 mi NE 5.8 mph - -  
9:20 PM 89.6 °F 30.2 °F 12% 29.65 in - NE 5.8 mph - N/A   Clear
9:50 PM 87.8 °F 32.0 °F 14% 29.65 in - NNE 3.5 mph - N/A   Clear
10:20 PM 80.6 °F 32.0 °F 17% 29.65 in - Variable 2.3 mph - N/A   Clear
10:50 PM 80.6 °F 33.8 °F 18% 29.65 in - West 5.8 mph - N/A   Clear
11:20 PM 78.8 °F 37.4 °F 23% 29.65 in - West 6.9 mph - N/A   Clear
11:50 PM 77.0 °F 35.6 °F 22% 29.65 in - West 3.5 mph - N/A   Clear